星链-2251 (STARLINK-2251 )

导读 | 豆包AI

STARLINK-2251是美国SpaceX公司星链(Starlink)星座中的卫星,于2021年5月15日发射。星链项目旨在通过近地轨道卫星星座,为全球提供高速低延迟互联网服务,重点覆盖地面基础设施难以抵达的偏远地区,也可支持军事及应急通信。 作为星链早期组网卫星,它运行在近地轨道,配合星座其他卫星,共同构建全球覆盖的卫星通信网络,为用户提供宽带接入服务,不过星链大规模部署也引发了太空拥堵与天文观测干扰等争议。

基本信息
目录编号:
48594
目录名称:
STARLINK-2251
国际标识:
2021-041AT
轨道中心:
EARTH
卫星名称:
星链-2251
卫星全名:
星链-2251 (STARLINK-2251 )
卫星状态:
在轨 (已飞行1811 天)
发射日期:
2021-05-15 UTC
国别 :
美国 (US)
星等 :
--
轨道信息
数据来源 国际轨道数据
星历时间: 2026-04-30T08:58:03+0800
11小时前
查看轨道信息
半长轴: 6853.372km
偏心率: 0.0001255
轨道倾角: 53.161°
近地点辐角 62.996°
升交点赤经 235.372°
平近点角 297.117°
近地点: 474.374km
远地点: 476.096km
周期: 94.106分钟
每日圈数: 15.301934
详细信息
固有亮度:
5
最大亮度:
2.5
卫星平台:
Starlink V1.0
覆盖范围:
全球
运营商:
太空探索技术公司
运营商所在国:
美国
制造商(研发单位):
太空探索技术公司
制造商所在国:
美国
使用方式:
暂无
卫星简介
星链(Starlink)计划是由太空探索技术公司(SpaceX)提出的一个巨型低轨卫星互联网星座项目,计划在2019年至2024年间在太空搭建由约1.2万颗卫星组成的“星链”网络,其中1584颗将部署在地球上空550千米处的近地轨道,并从2020年开始工作。该卫星仍在工作。
2D轨道图
3D轨道图
轨道高度分析图
轨道倾角分析图
轨道综合分析图
查看轨道综合分析图